Ardmore Downtown, OK

5:47 PM CDT on April 25, 2017 (GMT -0500)
Ardmore Downtown

Weather History for K1F0 - October, 2012

Change the Weather History Date:

Monday, October 29, 2012

  Actual Average (KADM) Record (KADM)
Temperature  
Mean Temperature 48 °F -  
Max Temperature 64 °F 67 °F 84 °F (1998)
Min Temperature 32 °F 50 °F 30 °F (2012)
Degree Days  
Heating Degree Days 17    
Moisture  
Dew Point 28 °F    
Average Humidity 56    
Maximum Humidity 93    
Minimum Humidity 19    
Precipitation  
Precipitation 0.00 in - - ()
Sea Level Pressure  
Sea Level Pressure 30.23 in    
Wind  
Wind Speed 1 mph (South)    
Max Wind Speed 8 mph    
Max Gust Speed -    
Visibility 10 miles    
Events      
Averages and records for this station are not official NWS values.
T = Trace of Precipitation, MM = Missing Value Source: NWS Daily Summary

Daily Weather History Graph

Daily Weather History Graph

Search for Another Location

Airport or City:

Trip Planner

Search our weather history database for the weather conditions in past years. The results will help you decide how hot, cold, wet, or windy it might be!

Date:

Astronomy

Oct. 29, 2012 Rise Set
Actual Time 7:45 AM CDT 6:37 PM CDT
Civil Twilight 7:20 AM CDT 7:03 PM CDT
Nautical Twilight 6:50 AM CDT 7:33 PM CDT
Astronomical Twilight 6:21 AM CDT 8:02 PM CDT
Moon 6:32 PM CDT (10/29) 7:36 AM CDT (10/29)
Length of Visible Light 11h 43m
Length of Day
10h 51m
Full, 100% of the Moon is Illuminated
Oct 29
Full
Oct 29
Full
Nov 6
Last Quarter
Nov 13
New
Nov 20
First Quarter

Hourly Weather History & Observations

Time (CDT) Temp. Dew Point Humidity Pressure Visibility Wind Dir Wind Speed Gust Speed Precip Events Conditions
12:15 AM 35.6 °F 30.2 °F 81% 30.26 in 10.0 mi Calm Calm - N/A   Clear
12:35 AM 37.4 °F 32.0 °F 81% 30.26 in 10.0 mi Calm Calm - N/A   Clear
12:55 AM 35.6 °F 32.0 °F 87% 30.27 in 10.0 mi Calm Calm - N/A   Clear
1:15 AM 37.4 °F 30.2 °F 75% 30.27 in 10.0 mi Calm Calm - N/A   Clear
1:35 AM 35.6 °F 30.2 °F 81% 30.27 in 10.0 mi Calm Calm - N/A   Clear
1:55 AM 35.6 °F 30.2 °F 81% 30.27 in 10.0 mi Calm Calm - N/A   Clear
2:15 AM 35.6 °F 30.2 °F 81% 30.27 in 10.0 mi Calm Calm - N/A   Clear
2:35 AM 33.8 °F 30.2 °F 87% 30.27 in 10.0 mi Calm Calm - N/A   Clear
2:55 AM 33.8 °F 30.2 °F 87% 30.27 in 10.0 mi Calm Calm - N/A   Clear
3:15 AM 33.8 °F 30.2 °F 87% 30.27 in 10.0 mi Calm Calm - N/A   Clear
3:55 AM 35.6 °F 30.2 °F 81% 30.26 in 10.0 mi Calm Calm - N/A   Clear
4:15 AM 33.8 °F 28.4 °F 81% 30.26 in 10.0 mi Calm Calm - N/A   Clear
4:55 AM 33.8 °F 28.4 °F 81% 30.26 in 10.0 mi Calm Calm - N/A   Clear
5:15 AM 32.0 °F 30.2 °F 93% 30.26 in 10.0 mi Calm Calm - N/A   Clear
5:35 AM 33.8 °F 28.4 °F 81% 30.27 in 10.0 mi Calm Calm - N/A   Clear
5:55 AM 35.6 °F 28.4 °F 75% 30.27 in 10.0 mi Calm Calm - N/A   Clear
6:15 AM 33.8 °F 28.4 °F 81% 30.27 in 10.0 mi Calm Calm - N/A   Clear
6:35 AM 32.0 °F 30.2 °F 93% 30.26 in 10.0 mi Calm Calm - N/A   Clear
6:55 AM 32.0 °F 28.4 °F 87% 30.27 in 10.0 mi Calm Calm - N/A   Clear
7:15 AM 33.8 °F 28.4 °F 81% 30.27 in 10.0 mi Calm Calm - N/A   Clear
7:35 AM 32.0 °F 28.4 °F 87% 30.27 in 10.0 mi Calm Calm - N/A   Clear
7:55 AM 32.0 °F 30.2 °F 93% 30.27 in 10.0 mi Calm Calm - N/A   Clear
8:15 AM 33.8 °F 30.2 °F 87% 30.29 in 10.0 mi Calm Calm - N/A   Clear
8:55 AM 37.4 °F 32.0 °F 81% 30.30 in 10.0 mi Calm Calm - N/A   Clear
9:15 AM 42.8 °F 32.0 °F 66% 30.30 in 10.0 mi Calm Calm - N/A   Clear
9:35 AM 44.6 °F 32.0 °F 61% 30.30 in 10.0 mi Calm Calm - N/A   Clear
9:55 AM 48.2 °F 33.8 °F 58% 30.31 in 10.0 mi South 3.5 mph - N/A   Clear
10:15 AM 51.8 °F 33.8 °F 50% 30.31 in 10.0 mi South 5.8 mph - N/A   Clear
10:35 AM 53.6 °F 30.2 °F 41% 30.30 in 10.0 mi South 6.9 mph - N/A   Clear
11:15 AM 55.4 °F 26.6 °F 33% 30.30 in 10.0 mi South 6.9 mph - N/A   Clear
11:35 AM 57.2 °F 24.8 °F 29% 30.30 in 10.0 mi SSW 6.9 mph - N/A   Clear
11:55 AM 59.0 °F 24.8 °F 27% 30.30 in 10.0 mi South 4.6 mph - N/A   Clear
12:15 PM 59.0 °F 23.0 °F 25% 30.29 in 10.0 mi South 6.9 mph - N/A   Clear
12:35 PM 59.0 °F 23.0 °F 25% 30.28 in 10.0 mi South 4.6 mph - N/A   Clear
12:55 PM 60.8 °F 24.8 °F 25% 30.26 in 10.0 mi South 5.8 mph - N/A   Clear
1:15 PM 60.8 °F 26.6 °F 27% 30.25 in 10.0 mi SSE 5.8 mph - N/A   Clear
1:35 PM 60.8 °F 26.6 °F 27% 30.24 in 10.0 mi SSE 5.8 mph - N/A   Clear
1:55 PM 62.6 °F 26.6 °F 26% 30.22 in 10.0 mi SSE 8.1 mph - N/A   Clear
2:15 PM 62.6 °F 26.6 °F 26% 30.21 in 10.0 mi Calm Calm - N/A   Clear
2:35 PM 62.6 °F 26.6 °F 26% 30.19 in 10.0 mi Calm Calm - N/A   Clear
2:55 PM 62.6 °F 24.8 °F 24% 30.18 in 10.0 mi SW 4.6 mph - N/A   Clear
3:15 PM 64.4 °F 23.0 °F 21% 30.17 in 10.0 mi SSE 4.6 mph - N/A   Clear
3:35 PM 64.4 °F 23.0 °F 21% 30.17 in 10.0 mi SSE 4.6 mph - N/A   Clear
3:55 PM 64.4 °F 21.2 °F 19% 30.17 in 10.0 mi SW 4.6 mph - N/A   Clear
4:15 PM 64.4 °F 21.2 °F 19% 30.15 in 10.0 mi SSW 5.8 mph - N/A   Clear
4:55 PM 64.4 °F 23.0 °F 21% 30.15 in 10.0 mi SW 6.9 mph - N/A   Clear
5:15 PM 64.4 °F 23.0 °F 21% 30.14 in 10.0 mi South 4.6 mph - N/A   Clear
5:35 PM 64.4 °F 24.8 °F 22% 30.14 in 10.0 mi South 3.5 mph - N/A   Clear
5:55 PM 64.4 °F 24.8 °F 22% 30.14 in 10.0 mi South 3.5 mph - N/A   Clear
6:15 PM 62.6 °F 26.6 °F 26% 30.13 in 10.0 mi South 3.5 mph - N/A   Clear
6:35 PM 60.8 °F 26.6 °F 27% 30.13 in 10.0 mi Calm Calm - N/A   Clear
6:55 PM 57.2 °F 26.6 °F 31% 30.13 in 10.0 mi Calm Calm - N/A   Clear
7:15 PM 53.6 °F 28.4 °F 38% 30.13 in 10.0 mi Calm Calm - N/A   Clear
7:35 PM 50.0 °F 30.2 °F 47% 30.13 in 10.0 mi Calm Calm - N/A   Clear
10:35 PM 42.8 °F 32.0 °F 66% 30.14 in 10.0 mi Calm Calm - N/A   Clear
10:55 PM 42.8 °F 32.0 °F 66% 30.13 in 10.0 mi Calm Calm - N/A   Clear
11:15 PM 42.8 °F 32.0 °F 66% 30.13 in 10.0 mi Calm Calm - N/A   Clear
11:35 PM 42.8 °F 32.0 °F 66% 30.13 in 10.0 mi Calm Calm - N/A   Clear
11:55 PM 41.0 °F 32.0 °F 70% 30.12 in 10.0 mi Calm Calm - N/A   Clear